Temp
14 13 13 12 12 11 11 11 11 11 11 11 11 11 11 11 10 10 10 10 10 10 9 9 9 9 9 9 8 8 8 8 8 8 8 8 9 9 9 9 9 9 9
13 13 13 12 12 12 12 11 11 11 12 12 12 11 11 11 11 11 10 10 10 10 10 10 9 9 9 9 9 8 8 8 9 9 9 8 9 8 9 9 9 9 10
14 13 13 13 13 13 12 12 12 12 12 12 12 12 12 12 11 11 11 11 11 10 10 10 10 10 9 9 9 9 9 9 9 9 9 9 9 9 9 9 9 9 10
15 14 14 14 14 14 14 14 13 13 13 13 13 13 13 12 12 12 12 11 11 11 11 10 10 10 10 10 10 10 10 10 10 9 9 8 8 9 9 8 9 9 9
16 16 16 15 15 15 15 14 14 14 14 13 13 13 13 13 13 13 13 12 11 11 11 11 11 11 10 10 10 10 10 10 10 10 9 9 9 9 9 9 9 9 9
16 16 16 16 16 15 15 15 15 15 14 14 14 14 14 13 13 13 13 12 12 12 11 11 11 11 10 10 10 10 10 10 10 10 9 9 9 9 9 8 8 8 9
15 16 16 16 16 16 16 15 15 15 15 14 14 14 14 14 13 13 13 13 12 12 12 11 11 11 11 10 10 10 9 9 10 10 10 10 10 9 9 9 9 9 9
15 16 16 16 16 16 16 15 15 15 15 15 14 14 14 13 13 13 12 12 12 12 11 11 11 10 10 10 10 9 9 9 9 9 10 10 10 10 10 9 9 10 8
16 16 16 16 16 16 16 15 15 15 15 14 14 14 13 13 13 13 12 12 11 11 11 11 10 10 10 10 9 9 9 9 9 9 9 9 9 9 9 9 9 9 9
15 16 15 16 15 16 16 15 15 15 14 14 14 13 13 13 12 12 12 12 11 11 10 10 10 10 9 9 9 9 9 8 9 9 8 9 9 9 9 9 9 9 8
15 15 14 15 15 15 16 15 15 15 14 13 13 13 13 12 12 12 12 12 11 10 10 10 10 9 9 9 9 9 8 8 8 8 8 8 8 8 8 9 8 8 8
15 15 14 14 14 15 15 14 14 14 13 13 13 13 13 12 12 12 11 11 10 10 10 10 9 9 9 9 9 8 8 8 8 8 7 7 7 7 8 8 8 8 8
14 14 14 13 13 13 15 15 15 14 14 14 13 12 12 12 11 11 11 11 10 10 10 10 9 9 9 8 8 8 8 8 8 8 8 7 7 6 6 7 7 7 7
14 14 13 12 11 12 13 13 13 13 13 13 12 12 12 12 11 11 11 11 10 10 9 9 9 8 8 8 8 8 8 8 7 7 8 7 6 6 6 6 6 6 7
15 14 13 12 12 10 9 11 12 12 12 13 12 12 11 11 11 10 10 10 10 10 9 9 9 8 8 8 7 7 7 7 7 7 7 6 5 5 5 5 6 6 6
13 13 14 13 12 11 8 11 11 11 11 12 12 12 11 11 10 10 9 9 9 9 9 9 9 8 7 7 7 7 7 6 6 6 7 6 6 6 6 5 6 6 6
13 12 12 13 13 12 11 12 11 10 10 11 11 11 11 10 10 9 9 9 9 9 9 9 9 9 8 8 7 6 6 6 6 7 6 6 6 6 5 6 6 6 5
11 12 10 11 11 11 12 11 10 10 10 11 11 10 10 10 10 9 9 9 9 9 8 8 8 8 8 8 7 7 7 6 6 6 6 6 6 6 6 5 6 6 6
11 11 11 11 11 11 11 11 11 11 11 10 10 10 9 9 9 9 8 8 8 8 8 8 7 7 7 7 7 7 7 7 7 7 6 6 6 6 6 6 6 6 6
11 11 11 11 11 11 11 10 11 10 9 9 9 9 8 8 8 8 7 7 6 6 6 6 6 6 6 6 6 6 6 6 6 6 5 5 4 5 5 5 4 5 5
10 10 11 11 10 10 10 10 10 9 9 9 9 8 7 7 7 7 6 5 5 5 5 5 5 5 5 5 5 5 5 5 5 5 5 5 5 5 5 4 5 5 5
9 9 10 9 9 9 8 8 9 9 8 8 8 7 6 6 6 5 4 4 4 4 4 4 4 4 4 4 4 4 4 4 4 4 4 4 4 5 5 5 5 5 5
8 9 9 8 8 8 8 8 8 7 7 7 6 5 4 4 4 4 4 4 4 3 4 4 3 3 3 3 3 3 3 3 3 3 3 3 4 4 3 3 4 4 4
7 7 8 7 7 8 8 6 6 5 5 5 4 4 3 3 3 3 3 3 3 3 3 4 3 3 3 3 3 3 3 3 3 3 2 3 3 3 2 2 2 3 3
7 7 7 7 7 7 6 5 4 4 4 3 3 3 3 3 3 2 2 2 2 2 2 2 2 2 2 1 2 2 2 2 2 2 2 2 2 2 1 1 1 2 2
5 5 5 5 5 6 5 4 4 4 3 3 3 3 2 2 1 1 1 1 2 2 2 2 1 1 1 1 1 1 1 1 1 1 1 1 1 1 1 1 1 1 1
Height
3185 3187 3188 3190 3191 3191 3192 3192 3193 3193 3194 3194 3195 3195 3196 3196 3197 3197 3198 3196 3197 3197 3196 3195 3195 3194 3195 3195 3196 3197 3197 3197 3198 3200 3201 3201 3201 3203 3202 3204 3205 3207 3208
3183 3184 3186 3187 3188 3189 3189 3190 3190 3190 3190 3191 3191 3191 3191 3192 3192 3192 3193 3193 3192 3191 3191 3191 3190 3191 3193 3193 3194 3193 3194 3194 3194 3195 3196 3197 3196 3197 3198 3199 3200 3202 3204
3181 3182 3183 3184 3185 3186 3186 3187 3187 3187 3187 3188 3188 3189 3189 3189 3190 3189 3190 3190 3189 3188 3188 3187 3188 3189 3191 3192 3192 3191 3192 3191 3190 3189 3190 3190 3191 3192 3193 3193 3194 3196 3198
3179 3180 3181 3182 3183 3183 3184 3184 3184 3185 3185 3186 3187 3187 3188 3188 3189 3188 3187 3186 3187 3187 3187 3186 3187 3188 3188 3189 3189 3189 3189 3188 3187 3184 3182 3182 3182 3184 3185 3187 3188 3190 3192
3177 3179 3180 3180 3181 3182 3183 3183 3183 3183 3184 3185 3185 3185 3185 3186 3185 3185 3185 3185 3185 3184 3185 3186 3186 3187 3187 3186 3187 3186 3186 3185 3183 3180 3177 3176 3175 3175 3176 3179 3180 3181 3183
3173 3177 3178 3180 3180 3181 3181 3182 3183 3182 3182 3183 3184 3184 3184 3183 3183 3183 3183 3182 3182 3181 3182 3183 3183 3183 3184 3183 3183 3182 3182 3181 3180 3178 3175 3172 3172 3170 3170 3171 3172 3172 3173
3169 3171 3174 3177 3178 3179 3179 3180 3180 3180 3180 3181 3181 3181 3181 3181 3181 3181 3180 3180 3179 3179 3179 3179 3179 3179 3179 3179 3179 3179 3178 3177 3176 3175 3173 3171 3168 3167 3166 3165 3165 3165 3165
3164 3166 3169 3172 3174 3176 3176 3177 3177 3177 3177 3177 3177 3177 3177 3177 3177 3177 3177 3177 3176 3176 3175 3175 3175 3175 3175 3175 3175 3174 3174 3173 3172 3171 3170 3168 3166 3164 3162 3160 3159 3157 3157
3155 3161 3164 3165 3169 3171 3172 3172 3173 3173 3172 3172 3173 3173 3173 3172 3172 3172 3172 3172 3172 3172 3171 3172 3172 3171 3170 3170 3170 3169 3168 3167 3166 3166 3166 3164 3163 3160 3158 3157 3155 3154 3153
3150 3154 3159 3160 3161 3165 3166 3167 3167 3168 3168 3167 3167 3167 3167 3167 3167 3167 3167 3167 3167 3166 3166 3167 3167 3167 3165 3166 3165 3164 3162 3161 3160 3160 3160 3159 3158 3156 3154 3152 3151 3149 3148
3135 3146 3152 3154 3155 3159 3160 3160 3161 3162 3161 3162 3162 3162 3162 3162 3161 3161 3161 3161 3161 3160 3159 3160 3160 3160 3159 3159 3159 3158 3157 3154 3154 3154 3152 3152 3152 3151 3149 3147 3146 3145 3144
3135 3141 3142 3146 3148 3151 3152 3152 3153 3155 3156 3156 3156 3156 3156 3157 3156 3155 3154 3154 3154 3154 3153 3154 3153 3153 3153 3153 3152 3152 3150 3149 3148 3147 3146 3145 3145 3145 3144 3143 3141 3139 3138
3126 3129 3135 3138 3141 3144 3145 3146 3146 3149 3150 3151 3151 3151 3151 3151 3150 3149 3148 3148 3147 3146 3146 3146 3146 3145 3146 3144 3144 3144 3144 3142 3141 3140 3139 3138 3138 3139 3138 3137 3135 3134 3133
3115 3121 3129 3132 3132 3135 3136 3138 3140 3143 3144 3145 3146 3146 3146 3146 3146 3145 3144 3142 3141 3140 3138 3138 3138 3138 3139 3137 3138 3137 3136 3135 3134 3133 3132 3130 3130 3130 3130 3130 3129 3128 3126
3106 3109 3115 3119 3113 3106 3125 3135 3137 3137 3140 3140 3139 3140 3140 3139 3138 3137 3136 3135 3134 3132 3131 3130 3129 3129 3130 3130 3130 3129 3128 3128 3127 3127 3125 3123 3122 3123 3121 3122 3121 3120 3120
3096 3102 3108 3110 3112 3115 3128 3129 3133 3131 3134 3133 3132 3131 3131 3130 3130 3129 3128 3127 3127 3126 3125 3123 3122 3122 3122 3121 3122 3121 3120 3120 3120 3119 3118 3116 3117 3118 3117 3116 3113 3111 3110
3092 3099 3108 3111 3114 3113 3121 3122 3124 3129 3129 3126 3125 3125 3124 3123 3123 3123 3123 3122 3121 3120 3119 3117 3117 3115 3114 3113 3113 3112 3112 3112 3112 3112 3112 3111 3111 3110 3109 3109 3106 3100 3096
3090 3088 3095 3106 3111 3114 3111 3108 3116 3121 3121 3119 3119 3120 3118 3118 3118 3118 3117 3117 3116 3115 3114 3113 3111 3109 3108 3107 3106 3106 3105 3103 3103 3103 3103 3103 3102 3101 3100 3099 3098 3096 3094
3084 3090 3094 3097 3099 3101 3100 3103 3108 3111 3112 3114 3114 3113 3112 3112 3112 3112 3113 3113 3111 3109 3108 3106 3105 3103 3102 3101 3100 3099 3098 3096 3096 3096 3095 3095 3094 3093 3092 3091 3089 3088 3087
3080 3084 3089 3091 3093 3097 3100 3101 3102 3105 3107 3108 3107 3107 3107 3107 3106 3106 3108 3107 3105 3104 3102 3101 3099 3098 3097 3096 3095 3094 3093 3090 3089 3088 3088 3087 3087 3085 3084 3083 3081 3080 3079
3074 3079 3082 3087 3088 3091 3095 3096 3098 3102 3102 3101 3101 3102 3104 3103 3101 3101 3103 3103 3101 3099 3098 3096 3095 3094 3093 3092 3091 3090 3087 3087 3085 3082 3083 3081 3079 3079 3078 3076 3074 3072 3070
3069 3074 3076 3082 3085 3088 3091 3092 3093 3096 3097 3096 3096 3097 3099 3097 3097 3097 3098 3099 3097 3095 3094 3091 3090 3089 3088 3087 3086 3084 3083 3081 3081 3079 3077 3075 3073 3072 3071 3070 3068 3065 3063
3068 3071 3075 3079 3082 3085 3088 3089 3090 3091 3091 3092 3093 3095 3096 3094 3093 3094 3095 3094 3093 3092 3090 3087 3087 3084 3083 3083 3081 3080 3078 3076 3073 3073 3071 3069 3068 3067 3065 3064 3061 3059 3057
3066 3069 3073 3076 3080 3082 3084 3085 3086 3087 3088 3089 3092 3092 3092 3092 3091 3090 3092 3091 3089 3087 3085 3081 3081 3081 3079 3076 3074 3072 3070 3069 3067 3065 3063 3061 3059 3058 3057 3056 3054 3053 3051
3065 3068 3072 3074 3076 3078 3080 3082 3084 3085 3087 3089 3090 3090 3089 3089 3089 3089 3089 3086 3084 3082 3078 3077 3075 3073 3072 3070 3068 3066 3063 3061 3058 3056 3055 3053 3051 3050 3049 3047 3046 3044 3043
3064 3067 3069 3071 3072 3075 3079 3081 3082 3083 3085 3086 3087 3086 3085 3087 3088 3088 3086 3082 3078 3075 3073 3071 3070 3066 3064 3062 3060 3058 3055 3051 3048 3045 3043 3041 3040 3038 3036 3035 3035 3034 3033
Wind_Speed
12 11 10 10 10 11 12 14 14 16 16 19 19 20 18 20 18 21 20 19 24 22 20 20 19 17 17 15 17 18 20 20 19 19 20 20 20 17 20 22 23 22 22
12 12 11 12 12 13 14 15 18 17 16 15 16 17 17 16 20 20 20 20 18 19 17 16 13 14 11 12 11 9 10 15 18 19 22 22 25 22 23 24 24 22 24
15 13 14 14 14 15 16 17 16 15 14 13 14 15 16 15 17 18 18 17 16 15 14 10 10 9 8 7 6 7 8 12 17 23 25 27 28 27 26 26 24 26 28
11 13 13 13 12 12 12 11 10 10 10 10 12 12 11 10 10 12 13 13 13 12 11 9 9 7 7 6 6 7 10 13 16 19 21 23 28 29 31 31 29 29 29
11 10 8 10 10 10 8 7 6 5 5 7 8 9 9 8 7 6 8 10 10 9 9 9 9 9 9 9 10 11 12 14 17 18 15 16 18 24 28 29 32 32 30
16 15 14 12 11 11 9 7 6 5 4 5 7 7 8 9 9 9 8 8 10 9 10 11 12 12 12 12 12 13 13 14 16 17 15 14 14 15 19 25 28 32 35
28 23 21 18 17 16 14 11 10 8 7 8 9 10 12 12 11 12 12 11 11 12 12 12 12 14 15 15 16 16 16 15 15 16 15 14 13 14 18 16 26 29 32
34 29 26 24 22 21 18 17 15 14 13 13 14 14 13 13 14 14 15 15 14 14 15 15 14 15 15 16 18 19 19 18 18 17 16 16 16 15 14 21 19 21 28
34 33 31 26 26 25 23 22 20 19 17 17 18 17 15 15 16 16 17 18 18 19 20 19 18 18 17 18 19 20 22 22 21 19 19 19 19 19 18 15 16 24 27
39 36 35 30 26 30 27 24 23 22 21 20 19 19 18 18 18 18 18 19 19 21 22 22 21 21 22 21 21 23 23 24 25 23 20 20 20 20 21 21 18 18 22
26 42 37 30 26 28 29 28 28 27 25 22 20 20 21 21 22 21 21 21 21 22 22 23 23 23 23 23 24 23 25 26 27 24 23 23 22 22 22 22 21 19 18
27 39 32 31 28 28 26 27 27 26 23 21 19 18 18 19 20 22 25 24 23 24 24 24 25 25 24 25 24 24 25 25 26 24 24 26 26 25 24 22 21 22 20
27 34 37 38 32 28 23 23 21 21 18 17 17 17 19 20 21 23 24 26 25 26 28 27 28 28 27 27 25 26 28 26 29 30 28 27 26 23 27 24 22 22 24
35 34 45 40 33 25 22 19 16 16 16 18 18 19 21 22 23 23 25 27 29 30 27 31 30 30 28 30 29 28 28 27 27 27 29 30 27 25 23 21 25 26 25
37 41 47 45 43 13 9 12 16 16 18 20 20 23 23 24 23 22 21 23 26 27 28 29 28 28 30 30 29 30 28 30 29 28 25 26 28 25 18 21 27 31 31
34 48 47 50 37 41 22 15 16 20 23 22 24 26 27 25 23 20 19 19 19 19 20 20 21 23 25 28 28 30 30 28 28 26 24 22 24 30 36 27 32 36 37
33 34 39 35 26 13 31 38 18 24 26 26 27 27 25 23 21 19 19 18 18 18 17 18 18 18 18 21 24 26 27 29 29 29 28 27 29 31 34 37 30 35 44
29 30 29 23 26 34 23 20 17 27 29 29 28 23 22 21 20 19 19 19 19 18 18 19 19 19 18 18 18 20 21 21 24 28 30 30 32 33 33 32 28 27 22
23 25 25 23 21 22 19 20 25 28 32 28 24 22 22 21 20 20 20 19 19 19 19 18 17 18 18 18 18 19 19 20 21 23 22 24 24 26 27 28 28 29 28
17 16 17 17 20 24 23 24 28 28 25 24 24 23 21 19 19 17 17 16 16 17 16 16 16 16 17 17 16 16 17 17 18 19 20 20 21 23 23 24 25 26 27
19 20 21 21 19 21 23 26 23 21 21 22 22 20 16 16 15 14 15 14 13 13 13 13 14 14 15 15 15 15 14 14 15 15 17 19 20 23 26 28 31 29 31
16 19 20 22 21 21 20 19 19 19 19 17 16 12 11 12 10 10 10 11 11 11 12 12 13 13 14 15 15 16 17 18 18 17 17 18 19 20 22 22 25 28 29
19 20 20 19 18 16 15 15 14 12 10 10 8 4 4 9 7 9 10 10 10 11 12 12 12 14 15 16 17 18 18 19 20 21 21 22 23 22 21 23 24 26 26
16 17 16 15 14 13 13 11 10 9 7 4 5 7 4 8 9 8 9 11 14 14 15 16 16 17 17 19 20 21 22 23 23 24 24 24 25 25 24 22 24 24 25
8 7 7 8 10 12 11 13 14 15 15 13 11 9 8 8 8 9 10 11 12 15 16 17 19 20 21 22 23 25 26 27 27 27 28 29 30 30 30 29 26 27 27
10 11 10 10 8 7 9 11 10 10 9 7 6 4 3 4 7 10 13 15 18 21 24 25 26 27 28 28 29 30 31 31 33 33 34 35 35 35 34 34 32 32 31
Wind_Direction
216 217 219 223 231 243 257 261 263 261 264 264 260 261 258 259 260 262 268 271 265 275 280 278 280 272 269 269 271 271 268 257 266 255 249 262 267 257 253 248 251 250 248
229 231 230 235 244 252 260 266 267 272 269 272 267 260 260 263 259 258 263 275 268 275 275 281 282 270 262 265 273 286 275 267 273 261 258 257 268 267 256 252 251 253 253
238 236 240 250 257 262 264 265 269 268 269 265 261 257 259 259 264 271 274 275 273 268 264 257 256 262 259 262 273 281 284 287 282 270 262 260 261 258 261 257 254 250 245
246 244 252 252 256 264 271 272 270 267 267 265 265 266 270 285 290 281 276 269 264 264 263 246 239 233 238 246 267 289 302 309 313 299 281 269 256 253 254 256 257 255 251
222 238 232 238 242 254 259 253 251 248 258 257 262 270 270 276 281 281 272 268 261 258 247 243 254 258 265 275 288 300 310 315 320 317 300 287 264 250 251 253 257 260 251
226 218 219 215 216 228 233 240 249 247 244 253 253 268 273 275 282 277 268 255 254 253 250 252 260 266 271 276 284 291 301 312 322 327 320 308 292 272 251 251 255 256 257
227 227 229 230 232 237 241 245 255 263 269 272 273 272 274 279 277 271 270 271 262 253 254 258 262 266 269 274 279 285 291 297 304 316 323 323 322 289 276 274 265 264 270
221 227 228 233 238 243 248 252 256 260 264 270 273 275 275 274 275 273 266 264 268 269 267 265 268 274 279 280 280 280 283 288 293 299 306 312 314 311 310 285 269 260 260
215 228 233 231 245 249 252 257 261 263 264 267 272 277 278 277 274 272 273 269 265 264 265 267 268 271 270 280 284 281 280 279 279 284 292 298 303 306 310 307 286 268 275
232 229 235 238 239 253 255 258 263 266 267 270 274 277 279 278 273 271 270 270 268 267 267 267 266 268 268 273 286 292 287 282 277 278 277 285 293 298 301 302 302 291 284
224 217 231 235 238 248 256 260 263 265 268 271 272 276 277 278 278 276 273 271 271 269 268 269 270 273 272 275 278 289 284 282 280 278 279 278 280 285 290 292 293 295 293
224 231 221 230 232 245 258 260 260 262 265 268 271 272 278 281 282 281 281 278 275 274 273 273 272 271 277 277 276 283 280 281 278 277 284 282 280 283 285 285 283 285 287
210 216 221 224 224 231 255 264 261 257 258 264 267 272 283 284 280 282 282 281 278 279 275 274 272 270 276 277 274 282 277 280 277 273 278 278 267 273 275 277 279 281 283
215 230 224 218 215 224 235 240 237 244 257 270 278 281 285 286 284 284 280 280 281 286 279 277 276 281 277 279 281 274 277 279 270 275 285 282 267 261 263 275 281 283 282
228 225 209 226 207 250 222 226 241 256 267 271 279 284 288 287 288 286 281 276 274 275 279 280 282 275 275 274 271 272 268 276 276 269 289 278 260 259 275 294 298 279 273
214 211 220 228 236 281 250 224 250 276 281 283 288 288 290 294 293 288 284 282 279 277 279 281 280 277 269 273 270 274 274 272 270 267 281 274 261 264 278 276 294 294 273
213 221 232 243 262 232 242 248 250 269 277 281 283 285 288 288 290 292 289 286 284 282 281 282 285 284 281 277 272 271 270 270 269 271 280 274 266 271 266 285 290 292 260
227 229 231 245 254 246 268 209 226 270 276 279 278 281 283 285 287 287 288 289 290 289 287 286 285 285 285 285 284 283 282 281 275 270 272 273 274 276 272 275 280 292 292
225 236 246 244 238 227 205 222 245 253 263 269 275 277 278 281 285 286 286 285 286 286 285 285 287 288 289 288 286 284 283 283 282 280 277 276 270 270 272 275 278 278 275
209 223 230 236 227 225 233 235 247 253 259 263 267 273 277 281 282 284 280 280 281 282 284 287 287 288 290 292 294 295 294 289 287 285 279 279 275 273 273 268 273 271 275
212 218 216 211 214 231 230 242 249 252 257 260 265 274 276 278 281 276 273 273 275 279 283 288 294 296 296 297 299 300 298 301 299 292 291 291 291 275 275 274 271 278 267
214 214 217 215 223 229 231 240 246 251 255 263 268 267 263 261 258 263 265 274 284 289 291 293 292 292 293 293 293 295 295 295 294 293 289 287 287 288 289 285 282 283 283
206 213 215 216 221 226 231 236 245 253 258 264 262 287 271 267 262 273 280 283 289 300 303 303 307 301 298 297 295 294 294 293 293 293 292 290 289 287 288 289 288 288 287
201 211 215 216 218 220 223 205 201 198 210 252 179 180 217 283 280 281 284 295 298 299 302 302 297 296 295 292 290 289 287 288 289 289 290 289 289 288 287 283 280 284 289
198 216 216 226 219 219 208 193 196 204 209 217 233 246 258 272 285 284 286 290 293 295 294 293 292 291 289 288 289 289 289 288 287 286 286 286 285 284 285 285 286 283 281
180 181 179 176 179 182 176 172 174 178 186 196 208 225 249 268 275 284 291 294 295 295 295 295 294 293 292 290 289 289 288 287 287 287 287 286 284 283 279 277 275 272 273